User: anonymous   Login
Location: Newark
(47.4333°N, 19.2500°E)
Time: 13:30:55
(UTC+00:00)
Language:

Hubble Space Telescope - Orbit

View from above orbital plane
View from above orbital plane
View from above satellite
View from above satellite

Ground track
Ground track

The orbit data is extracted from the following two-line orbital elements,

1 20580U 90037B   21110.21009601  .00000670  00000-0  29623-4 0  9997
2 20580  28.4695  90.4493 0002829 151.4183 314.5512 15.09615980502444
Epoch (UTC): 20 April 2021 05:02:32
Eccentricity: 0.0002829
inclination: 28.4695°
perigee height: 535 km
apogee height: 539 km
right ascension of ascending node: 90.4493°
argument of perigee: 151.4183°
revolutions per day: 15.09615980
mean anomaly at epoch: 314.5512°
orbit number at epoch: 50244

The dashed part of the orbit path shows where the satellite is in the earth's shadow,  

DLR